sat.trackr.live / text

‹ back to catalog

STARLINK-31413

NORAD 59353 · 2024-060F

PAYLOAD ACTIVE UNKNOWN

§ Identity

Operator
Country
US
Launch date
2024-03-31
Launch site
AFETR
Launch vehicle
Mass (kg)
RCS (m²)

Purposes: comms

External: N2YO · Heavens-Above · Gunter

§ Orbital elements

Epoch: 2026-05-25T02:44:03.215904Z

Period
94.27 min
Inclination
43.0033°
Eccentricity
0.0001745
Mean motion
15.27581018 rev/d
Perigee alt
481.8 km
Apogee alt
484.2 km
Semi-major
6,861.2 km
B*
7.4271e-6
RAAN
188.0272°
Arg perigee
280.2038°
Mean anomaly
79.8617°
Rev number
12,175

§ Raw data

STARLINK-314131 59353U 24060F   26145.11392611 -.00000058  00000+0  74271-5 0  99982 59353  43.0033 188.0272 0001745 280.2038  79.8617 15.27581018121750

JSON: /api/v1/satellites/59353 · /tle

For live sub-satellite position, see the globe view (requires WebGL).

§ Visibility from observer

Set your observer location to see the next 7 days of passes ≥ 10°. The values pass through the URL so the page stays shareable.

No JS? Fill the form by hand. The geolocation button needs JavaScript.